Time,TemperatureF,DewpointF,PressureIn,WindDirection,WindDirectionDegrees,WindSpeedMPH,WindSpeedGustMPH,Humidity,HourlyPrecipIn,Conditions,Clouds,dailyrainin,SoftwareType,DateUTC
2013-05-07 00:02:00,59.5,37.6,28.97,South,174,0.0,0.0,44,0.00,OVC,OVC,0.04,WeatherDisplay:10.37,2013-05-07 07:02:00,
2013-05-07 00:07:00,59.5,38.2,28.97,South,173,0.0,0.0,45,0.00,BKN,BKN,0.00,WeatherDisplay:10.37,2013-05-07 07:07:00,
2013-05-07 00:12:00,59.5,38.2,28.97,South,174,0.0,0.0,45,0.00,BKN,BKN,0.00,WeatherDisplay:10.37,2013-05-07 07:12:00,
2013-05-07 00:17:00,59.7,38.3,28.97,South,173,0.0,0.0,45,0.00,BKN,BKN,0.00,WeatherDisplay:10.37,2013-05-07 07:17:00,
2013-05-07 00:22:00,59.7,38.3,28.97,NNE,19,3.5,0.0,45,0.00,BKN,BKN,0.00,WeatherDisplay:10.37,2013-05-07 07:22:00,
2013-05-07 00:27:00,59.7,38.3,28.97,NNE,27,0.0,0.0,45,0.00,BKN,BKN,0.00,WeatherDisplay:10.37,2013-05-07 07:27:00,
2013-05-07 00:32:00,59.7,38.3,28.97,WSW,243,0.0,0.0,45,0.00,BKN,BKN,0.00,WeatherDisplay:10.37,2013-05-07 07:32:00,
2013-05-07 00:37:00,59.4,38.0,28.97,WSW,237,0.0,0.0,45,0.00,BKN,BKN,0.00,WeatherDisplay:10.37,2013-05-07 07:37:00,
2013-05-07 00:42:00,59.2,38.4,28.97,SW,222,2.7,2.7,46,0.00,BKN,BKN,0.00,WeatherDisplay:10.37,2013-05-07 07:42:00,
2013-05-07 00:47:00,59.0,38.2,28.97,SW,217,2.3,0.0,46,0.00,BKN,BKN,0.00,WeatherDisplay:10.37,2013-05-07 07:47:00,
2013-05-07 00:52:00,58.8,38.6,28.97,SW,218,2.3,0.0,47,0.00,BKN,BKN,0.00,WeatherDisplay:10.37,2013-05-07 07:52:00,
2013-05-07 00:57:00,58.8,39.2,28.97,SW,217,0.0,0.0,48,0.00,BKN,BKN,0.00,WeatherDisplay:10.37,2013-05-07 07:57:00,
2013-05-07 01:02:00,58.8,39.2,28.97,SW,217,0.0,0.0,48,0.00,BKN,BKN,0.00,WeatherDisplay:10.37,2013-05-07 08:02:00,
2013-05-07 01:07:00,58.8,39.7,28.97,SW,220,0.0,0.0,49,0.00,OVC,OVC,0.00,WeatherDisplay:10.37,2013-05-07 08:07:00,
2013-05-07 01:12:00,58.8,39.7,28.97,SW,219,0.0,0.0,49,0.00,OVC,OVC,0.00,WeatherDisplay:10.37,2013-05-07 08:12:00,
2013-05-07 01:17:00,59.0,39.9,28.97,SW,220,0.0,0.0,49,0.00,OVC,OVC,0.00,WeatherDisplay:10.37,2013-05-07 08:17:00,
2013-05-07 01:22:00,59.2,40.0,28.97,South,188,0.0,0.0,49,0.00,OVC,OVC,0.00,WeatherDisplay:10.37,2013-05-07 08:22:00,
2013-05-07 01:27:00,59.2,40.0,28.97,South,176,2.7,0.0,49,0.00,OVC,OVC,0.00,WeatherDisplay:10.37,2013-05-07 08:27:00,
2013-05-07 01:32:00,59.2,40.0,28.97,South,175,0.0,0.0,49,0.00,OVC,OVC,0.00,WeatherDisplay:10.37,2013-05-07 08:32:00,
2013-05-07 01:37:00,59.9,40.7,29.00,South,174,0.0,0.0,49,0.00,OVC,OVC,0.00,WeatherDisplay:10.37,2013-05-07 08:37:00,
2013-05-07 01:42:00,59.7,40.5,29.00,South,174,0.0,0.0,49,0.00,OVC,OVC,0.00,WeatherDisplay:10.37,2013-05-07 08:42:00,
2013-05-07 01:47:00,59.9,40.7,29.00,SSE,165,2.3,0.0,49,0.00,OVC,OVC,0.00,WeatherDisplay:10.37,2013-05-07 08:47:00,
2013-05-07 01:52:00,59.9,41.2,28.97,SSE,167,0.0,0.0,50,0.00,OVC,OVC,0.00,WeatherDisplay:10.37,2013-05-07 08:52:00,
2013-05-07 01:57:00,59.9,41.2,28.97,SSE,167,0.0,0.0,50,0.00,OVC,OVC,0.00,WeatherDisplay:10.37,2013-05-07 08:57:00,
2013-05-07 02:02:00,60.1,41.4,28.97,SSE,167,0.0,0.0,50,0.00,OVC,OVC,0.00,WeatherDisplay:10.37,2013-05-07 09:02:00,
2013-05-07 02:07:00,60.1,41.4,28.97,SSE,167,0.0,0.0,50,0.00,OVC,OVC,0.00,WeatherDisplay:10.37,2013-05-07 09:07:00,
2013-05-07 02:12:00,60.1,41.4,28.97,SSE,167,0.0,0.0,50,0.00,OVC,OVC,0.00,WeatherDisplay:10.37,2013-05-07 09:12:00,
2013-05-07 02:17:00,60.4,41.7,28.97,SSE,167,0.0,0.0,50,0.00,OVC,OVC,0.00,WeatherDisplay:10.37,2013-05-07 09:17:00,
2013-05-07 02:22:00,60.4,41.7,28.97,SSE,167,0.0,0.0,50,0.00,OVC,OVC,0.00,WeatherDisplay:10.37,2013-05-07 09:22:00,
2013-05-07 02:27:00,60.4,41.7,28.97,ENE,73,0.0,0.0,50,0.00,OVC,OVC,0.00,WeatherDisplay:10.37,2013-05-07 09:27:00,
2013-05-07 02:32:00,60.4,41.2,28.97,ENE,73,0.0,0.0,49,0.00,OVC,OVC,0.00,WeatherDisplay:10.37,2013-05-07 09:32:00,
2013-05-07 02:37:00,60.4,40.6,28.97,ENE,73,0.0,0.0,48,0.00,OVC,OVC,0.00,WeatherDisplay:10.37,2013-05-07 09:37:00,
2013-05-07 02:42:00,60.4,40.6,28.97,ENE,73,0.0,0.0,48,0.00,OVC,OVC,0.00,WeatherDisplay:10.37,2013-05-07 09:42:00,
2013-05-07 02:47:00,60.4,40.6,28.97,ENE,73,0.0,0.0,48,0.00,OVC,OVC,0.00,WeatherDisplay:10.37,2013-05-07 09:47:00,
2013-05-07 02:52:00,60.4,40.6,28.97,ENE,73,0.0,0.0,48,0.00,OVC,OVC,0.00,WeatherDisplay:10.37,2013-05-07 09:52:00,
2013-05-07 02:57:00,60.4,40.6,28.97,ENE,73,0.0,0.0,48,0.00,OVC,OVC,0.00,WeatherDisplay:10.37,2013-05-07 09:57:00,
2013-05-07 03:02:00,60.4,40.6,28.97,ENE,73,0.0,0.0,48,0.00,OVC,OVC,0.00,WeatherDisplay:10.37,2013-05-07 10:02:00,
2013-05-07 03:07:00,60.1,39.8,28.97,ENE,73,0.0,0.0,47,0.00,OVC,OVC,0.00,WeatherDisplay:10.37,2013-05-07 10:07:00,
2013-05-07 03:12:00,60.1,39.8,28.97,ENE,73,0.0,0.0,47,0.00,OVC,OVC,0.00,WeatherDisplay:10.37,2013-05-07 10:12:00,
2013-05-07 03:17:00,60.1,39.8,28.97,ENE,73,0.0,0.0,47,0.00,OVC,OVC,0.00,WeatherDisplay:10.37,2013-05-07 10:17:00,
2013-05-07 03:22:00,60.1,39.8,28.97,ESE,120,0.0,0.0,47,0.00,OVC,OVC,0.00,WeatherDisplay:10.37,2013-05-07 10:22:00,
2013-05-07 03:27:00,60.1,39.8,28.97,SE,141,0.0,0.0,47,0.00,OVC,OVC,0.00,WeatherDisplay:10.37,2013-05-07 10:27:00,
2013-05-07 03:32:00,59.9,39.6,28.97,SSE,168,0.0,0.0,47,0.00,OVC,OVC,0.00,WeatherDisplay:10.37,2013-05-07 10:32:00,
2013-05-07 03:37:00,59.9,40.1,28.97,South,178,0.0,0.0,48,0.00,OVC,OVC,0.00,WeatherDisplay:10.37,2013-05-07 10:37:00,
2013-05-07 03:42:00,59.9,40.1,28.97,South,180,0.0,0.0,48,0.00,OVC,OVC,0.00,WeatherDisplay:10.37,2013-05-07 10:42:00,
2013-05-07 03:47:00,59.7,40.0,28.97,South,179,0.0,0.0,48,0.00,OVC,OVC,0.00,WeatherDisplay:10.37,2013-05-07 10:47:00,
2013-05-07 03:52:00,59.7,40.0,28.97,SSE,158,4.0,4.0,48,0.00,OVC,OVC,0.00,WeatherDisplay:10.37,2013-05-07 10:52:00,
2013-05-07 03:57:00,59.7,40.0,28.97,SSE,159,2.3,0.0,48,0.00,OVC,OVC,0.00,WeatherDisplay:10.37,2013-05-07 10:57:00,
2013-05-07 04:02:00,59.7,40.0,28.97,SSE,166,0.0,0.0,48,0.00,OVC,OVC,0.00,WeatherDisplay:10.37,2013-05-07 11:02:00,
2013-05-07 04:07:00,59.7,40.0,28.97,SE,135,3.6,0.0,48,0.00,OVC,OVC,0.00,WeatherDisplay:10.37,2013-05-07 11:07:00,
2013-05-07 04:12:00,59.7,40.0,28.97,SSE,153,3.5,0.0,48,0.00,OVC,OVC,0.00,WeatherDisplay:10.37,2013-05-07 11:12:00,
2013-05-07 04:17:00,59.7,40.0,28.97,SSE,163,4.0,4.0,48,0.00,OVC,OVC,0.00,WeatherDisplay:10.37,2013-05-07 11:17:00,
2013-05-07 04:22:00,59.7,40.0,28.97,South,186,2.3,0.0,48,0.00,OVC,OVC,0.00,WeatherDisplay:10.37,2013-05-07 11:22:00,
2013-05-07 04:27:00,59.7,40.5,28.97,SE,136,3.5,0.0,49,0.00,OVC,OVC,0.00,WeatherDisplay:10.37,2013-05-07 11:27:00,
2013-05-07 04:32:00,59.9,40.7,28.97,SSE,166,2.7,0.0,49,0.00,OVC,OVC,0.00,WeatherDisplay:10.37,2013-05-07 11:32:00,
2013-05-07 04:37:00,59.9,40.7,28.97,ESE,106,3.5,3.5,49,0.00,OVC,OVC,0.00,WeatherDisplay:10.37,2013-05-07 11:37:00,
2013-05-07 04:42:00,59.9,40.7,28.97,ESE,111,4.0,4.0,49,0.00,OVC,OVC,0.00,WeatherDisplay:10.37,2013-05-07 11:42:00,
2013-05-07 04:47:00,59.7,40.0,28.97,SE,143,3.5,0.0,48,0.00,OVC,OVC,0.00,WeatherDisplay:10.37,2013-05-07 11:47:00,
2013-05-07 04:52:00,59.7,40.0,28.97,East,86,4.0,0.0,48,0.00,OVC,OVC,0.00,WeatherDisplay:10.37,2013-05-07 11:52:00,
2013-05-07 04:57:00,59.7,40.0,28.97,SSE,168,3.6,3.6,48,0.00,OVC,OVC,0.00,WeatherDisplay:10.37,2013-05-07 11:57:00,
2013-05-07 05:02:00,59.7,40.0,28.97,SE,127,3.5,0.0,48,0.00,OVC,OVC,0.00,WeatherDisplay:10.37,2013-05-07 12:02:00,
2013-05-07 05:07:00,59.7,39.4,29.00,East,91,4.9,4.9,47,0.00,OVC,OVC,0.00,WeatherDisplay:10.37,2013-05-07 12:07:00,
2013-05-07 05:12:00,59.7,39.4,29.00,SE,144,5.8,5.8,47,0.00,OVC,OVC,0.00,WeatherDisplay:10.37,2013-05-07 12:12:00,
2013-05-07 05:17:00,59.7,39.4,29.00,SSE,152,3.1,0.0,47,0.00,OVC,OVC,0.00,WeatherDisplay:10.37,2013-05-07 12:17:00,
2013-05-07 05:22:00,59.7,39.4,29.00,SSE,161,0.0,0.0,47,0.00,OVC,OVC,0.00,WeatherDisplay:10.37,2013-05-07 12:22:00,
2013-05-07 05:27:00,59.7,39.4,29.00,SSE,157,4.0,4.0,47,0.00,OVC,OVC,0.00,WeatherDisplay:10.37,2013-05-07 12:27:00,
2013-05-07 05:32:00,59.7,38.9,29.00,SSE,154,3.6,3.6,46,0.00,OVC,OVC,0.00,WeatherDisplay:10.37,2013-05-07 12:32:00,
2013-05-07 05:37:00,59.7,38.9,29.00,SE,129,3.5,3.5,46,0.00,OVC,OVC,0.00,WeatherDisplay:10.37,2013-05-07 12:37:00,
2013-05-07 05:42:00,59.7,38.9,29.00,ESE,103,3.5,0.0,46,0.00,OVC,OVC,0.00,WeatherDisplay:10.37,2013-05-07 12:42:00,
2013-05-07 05:47:00,59.7,38.9,29.00,SE,137,3.6,0.0,46,0.00,OVC,OVC,0.00,WeatherDisplay:10.37,2013-05-07 12:47:00,
2013-05-07 05:52:00,59.7,39.4,29.00,ESE,117,4.0,0.0,47,0.00,OVC,OVC,0.00,WeatherDisplay:10.37,2013-05-07 12:52:00,
2013-05-07 05:57:00,59.7,40.0,29.00,ESE,120,2.7,0.0,48,0.00,OVC,OVC,0.00,WeatherDisplay:10.37,2013-05-07 12:57:00,
2013-05-07 06:02:00,59.5,40.3,29.00,SSE,151,3.5,0.0,49,0.00,OVC,OVC,0.00,WeatherDisplay:10.37,2013-05-07 13:02:00,
2013-05-07 06:07:00,59.5,41.4,29.00,East,100,2.7,0.0,51,0.00,OVC,OVC,0.00,WeatherDisplay:10.37,2013-05-07 13:07:00,
2013-05-07 06:12:00,59.5,41.9,29.00,ESE,107,0.0,0.0,52,0.00,OVC,OVC,0.00,WeatherDisplay:10.37,2013-05-07 13:12:00,
2013-05-07 06:17:00,59.4,41.7,29.00,ESE,109,4.0,4.0,52,0.00,OVC,OVC,0.00,WeatherDisplay:10.37,2013-05-07 13:17:00,
2013-05-07 06:22:00,59.4,42.7,29.00,ESE,116,3.5,3.5,54,0.00,OVC,OVC,0.00,WeatherDisplay:10.37,2013-05-07 13:22:00,
2013-05-07 06:27:00,59.5,42.9,29.00,NE,55,3.1,0.0,54,0.00,OVC,OVC,0.00,WeatherDisplay:10.37,2013-05-07 13:27:00,
2013-05-07 06:32:00,59.5,42.9,29.00,East,91,3.6,0.0,54,0.00,OVC,OVC,0.00,WeatherDisplay:10.37,2013-05-07 13:32:00,
2013-05-07 06:37:00,59.4,43.2,29.00,SE,126,3.6,3.6,55,0.00,OVC,OVC,0.00,WeatherDisplay:10.37,2013-05-07 13:37:00,
2013-05-07 06:42:00,59.4,43.2,29.00,ESE,120,3.5,0.0,55,0.00,OVC,OVC,0.00,WeatherDisplay:10.37,2013-05-07 13:42:00,
2013-05-07 06:47:00,59.4,43.2,29.00,SE,127,3.6,0.0,55,0.00,OVC,OVC,0.00,WeatherDisplay:10.37,2013-05-07 13:47:00,
2013-05-07 06:52:00,59.4,43.2,29.00,SE,140,2.7,0.0,55,0.00,OVC,OVC,0.00,WeatherDisplay:10.37,2013-05-07 13:52:00,
2013-05-07 06:57:00,59.4,43.2,29.00,SE,146,3.5,3.5,55,0.00,OVC,OVC,0.00,WeatherDisplay:10.37,2013-05-07 13:57:00,
2013-05-07 07:02:00,59.4,43.2,29.00,SSE,153,4.0,0.0,55,0.00,OVC,OVC,0.00,WeatherDisplay:10.37,2013-05-07 14:02:00,
2013-05-07 07:07:00,59.4,43.2,29.00,SSE,165,5.4,5.4,55,0.00,OVC,OVC,0.00,WeatherDisplay:10.37,2013-05-07 14:07:00,
2013-05-07 07:12:00,59.4,43.7,29.00,South,173,3.6,3.6,56,0.00,OVC,OVC,0.00,WeatherDisplay:10.37,2013-05-07 14:12:00,
2013-05-07 07:17:00,59.4,43.7,29.00,SE,138,2.7,0.0,56,0.00,OVC,OVC,0.00,WeatherDisplay:10.37,2013-05-07 14:17:00,
2013-05-07 07:22:00,59.4,43.7,29.00,SE,140,4.6,4.6,56,0.00,OVC,OVC,0.00,WeatherDisplay:10.37,2013-05-07 14:22:00,
2013-05-07 07:27:00,59.4,43.7,29.00,South,175,4.9,4.9,56,0.00,OVC,OVC,0.00,WeatherDisplay:10.37,2013-05-07 14:27:00,
2013-05-07 07:32:00,59.4,43.7,29.00,SSE,167,4.6,4.6,56,0.00,OVC,OVC,0.00,WeatherDisplay:10.37,2013-05-07 14:32:00,
2013-05-07 07:37:00,59.5,43.8,29.00,SSE,152,4.6,4.6,56,0.00,OVC,OVC,0.00,WeatherDisplay:10.37,2013-05-07 14:37:00,
2013-05-07 07:42:00,59.7,44.0,29.00,SE,137,3.6,3.6,56,0.00,OVC,OVC,0.00,WeatherDisplay:10.37,2013-05-07 14:42:00,
2013-05-07 07:47:00,59.7,44.0,29.00,SE,135,4.0,4.0,56,0.00,OVC,OVC,0.00,WeatherDisplay:10.37,2013-05-07 14:47:00,
2013-05-07 07:52:00,59.9,44.2,29.03,ENE,76,4.0,0.0,56,0.00,OVC,OVC,0.00,WeatherDisplay:10.37,2013-05-07 14:52:00,
2013-05-07 07:57:00,60.1,44.3,29.03,SSE,148,3.6,3.6,56,0.00,OVC,OVC,0.00,WeatherDisplay:10.37,2013-05-07 14:57:00,
2013-05-07 08:02:00,60.1,43.9,29.03,East,87,4.9,4.9,55,0.00,OVC,OVC,0.00,WeatherDisplay:10.37,2013-05-07 15:02:00,
2013-05-07 08:07:00,60.3,44.0,29.03,East,101,3.5,0.0,55,0.00,OVC,OVC,0.00,WeatherDisplay:10.37,2013-05-07 15:07:00,
2013-05-07 08:12:00,60.4,44.2,29.03,ESE,117,3.6,3.6,55,0.00,OVC,OVC,0.00,WeatherDisplay:10.37,2013-05-07 15:12:00,
2013-05-07 08:17:00,60.6,44.4,29.03,South,170,3.6,3.6,55,0.00,OVC,OVC,0.00,WeatherDisplay:10.37,2013-05-07 15:17:00,
2013-05-07 08:22:00,60.6,43.9,29.03,ESE,104,5.8,5.8,54,0.00,OVC,OVC,0.00,WeatherDisplay:10.37,2013-05-07 15:22:00,
2013-05-07 08:27:00,60.8,44.0,29.03,SE,132,4.0,0.0,54,0.00,OVC,OVC,0.00,WeatherDisplay:10.37,2013-05-07 15:27:00,
2013-05-07 08:32:00,61.0,43.7,29.03,East,88,3.6,3.6,53,0.00,OVC,OVC,0.00,WeatherDisplay:10.37,2013-05-07 15:32:00,
2013-05-07 08:37:00,61.2,42.9,29.03,SE,136,0.0,0.0,51,0.00,OVC,OVC,0.00,WeatherDisplay:10.37,2013-05-07 15:37:00,
2013-05-07 08:42:00,61.3,42.0,29.03,SE,127,4.9,0.0,49,0.00,OVC,OVC,0.00,WeatherDisplay:10.37,2013-05-07 15:42:00,
2013-05-07 08:47:00,61.3,40.9,29.03,South,175,4.0,4.0,47,0.00,OVC,OVC,0.00,WeatherDisplay:10.37,2013-05-07 15:47:00,
2013-05-07 08:52:00,61.2,40.8,29.03,SE,143,3.5,0.0,47,0.00,OVC,OVC,0.00,WeatherDisplay:10.37,2013-05-07 15:52:00,
2013-05-07 08:57:00,61.3,40.9,29.03,SE,137,3.5,0.0,47,0.00,OVC,OVC,0.00,WeatherDisplay:10.37,2013-05-07 15:57:00,
2013-05-07 09:02:00,61.3,40.4,29.03,SE,140,5.8,5.8,46,0.00,OVC,OVC,0.00,WeatherDisplay:10.37,2013-05-07 16:02:00,
2013-05-07 09:07:00,61.5,41.1,29.03,SE,135,5.8,5.8,47,0.00,OVC,OVC,0.00,WeatherDisplay:10.37,2013-05-07 16:07:00,
2013-05-07 09:12:00,61.7,41.3,29.03,ENE,75,4.0,0.0,47,0.00,OVC,OVC,0.00,WeatherDisplay:10.37,2013-05-07 16:12:00,
2013-05-07 09:17:00,61.7,40.7,29.03,SSE,164,5.8,5.8,46,0.00,OVC,OVC,0.00,WeatherDisplay:10.37,2013-05-07 16:17:00,
2013-05-07 09:22:00,61.7,40.1,29.03,SSE,168,5.4,5.4,45,0.00,OVC,OVC,0.00,WeatherDisplay:10.37,2013-05-07 16:22:00,
2013-05-07 09:27:00,61.7,40.1,29.03,South,178,5.8,5.8,45,0.00,OVC,OVC,0.00,WeatherDisplay:10.37,2013-05-07 16:27:00,
2013-05-07 09:32:00,61.9,40.3,29.03,SSE,163,5.8,5.8,45,0.00,OVC,OVC,0.00,WeatherDisplay:10.37,2013-05-07 16:32:00,
2013-05-07 09:37:00,61.9,40.3,29.03,ESE,123,3.5,3.5,45,0.00,OVC,OVC,0.00,WeatherDisplay:10.37,2013-05-07 16:37:00,
2013-05-07 09:42:00,61.9,40.3,29.03,SE,129,4.0,4.0,45,0.00,OVC,OVC,0.00,WeatherDisplay:10.37,2013-05-07 16:42:00,
2013-05-07 09:47:00,62.6,40.9,29.03,East,93,3.6,3.6,45,0.00,OVC,OVC,0.00,WeatherDisplay:10.37,2013-05-07 16:47:00,
2013-05-07 09:52:00,63.3,41.0,29.03,SE,125,5.8,5.8,44,0.00,OVC,OVC,0.00,WeatherDisplay:10.37,2013-05-07 16:52:00,
2013-05-07 09:57:00,63.5,41.2,29.03,South,175,4.0,4.0,44,0.00,OVC,OVC,0.00,WeatherDisplay:10.37,2013-05-07 16:57:00,
2013-05-07 10:02:00,63.7,40.8,29.03,SSE,159,4.9,4.9,43,0.00,OVC,OVC,0.00,WeatherDisplay:10.37,2013-05-07 17:02:00,
2013-05-07 10:07:00,64.2,41.2,29.03,SSW,198,5.8,5.8,43,0.00,BKN,BKN,0.00,WeatherDisplay:10.37,2013-05-07 17:07:00,
2013-05-07 10:12:00,64.4,41.4,29.03,South,186,5.8,5.8,43,0.00,BKN,BKN,0.00,WeatherDisplay:10.37,2013-05-07 17:12:00,
2013-05-07 10:17:00,63.9,40.9,29.03,SSE,160,5.8,5.8,43,0.00,BKN,BKN,0.00,WeatherDisplay:10.37,2013-05-07 17:17:00,
2013-05-07 10:22:00,63.9,40.9,29.03,ESE,122,4.0,4.0,43,0.00,BKN,BKN,0.00,WeatherDisplay:10.37,2013-05-07 17:22:00,
2013-05-07 10:27:00,64.4,39.5,29.03,SE,138,5.8,5.8,40,0.00,BKN,BKN,0.00,WeatherDisplay:10.37,2013-05-07 17:27:00,
2013-05-07 10:32:00,64.8,39.9,29.03,SSE,164,6.9,6.9,40,0.00,BKN,BKN,0.00,WeatherDisplay:10.37,2013-05-07 17:32:00,
2013-05-07 10:37:00,65.1,38.9,29.06,East,90,5.8,5.8,38,0.00,BKN,BKN,0.00,WeatherDisplay:10.37,2013-05-07 17:37:00,
2013-05-07 10:42:00,65.8,39.5,29.06,SSW,197,5.8,5.8,38,0.00,BKN,BKN,0.00,WeatherDisplay:10.37,2013-05-07 17:42:00,
2013-05-07 10:47:00,65.7,39.3,29.06,ESE,113,6.7,6.7,38,0.00,BKN,BKN,0.00,WeatherDisplay:10.37,2013-05-07 17:47:00,
2013-05-07 10:52:00,66.2,39.1,29.06,East,87,5.8,5.8,37,0.00,BKN,BKN,0.00,WeatherDisplay:10.37,2013-05-07 17:52:00,
2013-05-07 10:57:00,66.0,37.6,29.06,SSE,154,4.0,4.0,35,0.00,BKN,BKN,0.00,WeatherDisplay:10.37,2013-05-07 17:57:00,
2013-05-07 11:02:00,66.0,37.6,29.06,ESE,117,5.8,5.8,35,0.00,BKN,BKN,0.00,WeatherDisplay:10.37,2013-05-07 18:02:00,
2013-05-07 11:07:00,65.8,37.4,29.06,SW,216,3.5,0.0,35,0.00,BKN,BKN,0.00,WeatherDisplay:10.37,2013-05-07 18:07:00,
2013-05-07 11:12:00,66.2,37.7,29.06,SE,129,4.0,4.0,35,0.00,BKN,BKN,0.00,WeatherDisplay:10.37,2013-05-07 18:12:00,
2013-05-07 11:17:00,66.4,37.9,29.06,SSE,157,5.8,5.8,35,0.00,BKN,BKN,0.00,WeatherDisplay:10.37,2013-05-07 18:17:00,
2013-05-07 11:22:00,66.4,37.9,29.06,SSE,150,3.6,3.6,35,0.00,BKN,BKN,0.00,WeatherDisplay:10.37,2013-05-07 18:22:00,
2013-05-07 11:27:00,66.4,37.9,29.06,South,176,6.3,6.3,35,0.00,BKN,BKN,0.00,WeatherDisplay:10.37,2013-05-07 18:27:00,
2013-05-07 11:32:00,66.4,37.9,29.06,South,171,5.8,5.8,35,0.00,BKN,BKN,0.00,WeatherDisplay:10.37,2013-05-07 18:32:00,
2013-05-07 11:37:00,66.0,37.6,29.06,South,171,5.8,5.8,35,0.00,BKN,BKN,0.00,WeatherDisplay:10.37,2013-05-07 18:37:00,
2013-05-07 11:42:00,65.8,35.9,29.06,East,93,8.1,8.1,33,0.00,BKN,BKN,0.00,WeatherDisplay:10.37,2013-05-07 18:42:00,
2013-05-07 11:47:00,66.0,36.1,29.06,East,94,6.3,6.3,33,0.00,BKN,BKN,0.00,WeatherDisplay:10.37,2013-05-07 18:47:00,
2013-05-07 11:52:00,65.8,37.4,29.06,ESE,104,3.6,0.0,35,0.00,BKN,BKN,0.00,WeatherDisplay:10.37,2013-05-07 18:52:00,
2013-05-07 11:57:00,66.0,36.1,29.06,South,169,4.0,0.0,33,0.00,BKN,BKN,0.00,WeatherDisplay:10.37,2013-05-07 18:57:00,
2013-05-07 12:02:00,66.0,36.1,29.06,SE,136,5.8,5.8,33,0.00,BKN,BKN,0.00,WeatherDisplay:10.37,2013-05-07 19:02:00,
2013-05-07 12:07:00,66.0,36.1,29.06,NE,53,4.0,4.0,33,0.00,BKN,BKN,0.00,WeatherDisplay:10.37,2013-05-07 19:07:00,
2013-05-07 12:12:00,66.7,35.9,29.06,NE,55,3.6,3.6,32,0.00,BKN,BKN,0.00,WeatherDisplay:10.37,2013-05-07 19:12:00,
2013-05-07 12:17:00,67.3,36.4,29.06,SSW,209,3.6,0.0,32,0.00,BKN,BKN,0.00,WeatherDisplay:10.37,2013-05-07 19:17:00,
2013-05-07 12:22:00,68.0,37.0,29.06,ESE,123,8.3,0.0,32,0.00,BKN,BKN,0.00,WeatherDisplay:10.37,2013-05-07 19:22:00,
2013-05-07 12:27:00,67.6,36.7,29.06,South,174,6.3,6.3,32,0.00,BKN,BKN,0.00,WeatherDisplay:10.37,2013-05-07 19:27:00,
2013-05-07 12:32:00,67.3,36.4,29.06,SSE,167,5.8,5.8,32,0.00,BKN,BKN,0.00,WeatherDisplay:10.37,2013-05-07 19:32:00,
2013-05-07 12:37:00,67.5,36.6,29.03,East,94,3.5,0.0,32,0.00,BKN,BKN,0.00,WeatherDisplay:10.37,2013-05-07 19:37:00,
2013-05-07 12:42:00,67.6,36.7,29.03,South,185,4.0,4.0,32,0.00,BKN,BKN,0.00,WeatherDisplay:10.37,2013-05-07 19:42:00,
2013-05-07 12:47:00,67.5,36.6,29.03,South,187,5.8,5.8,32,0.00,BKN,BKN,0.00,WeatherDisplay:10.37,2013-05-07 19:47:00,
2013-05-07 12:52:00,67.3,36.4,29.03,South,171,5.4,5.4,32,0.00,BKN,BKN,0.00,WeatherDisplay:10.37,2013-05-07 19:52:00,
2013-05-07 12:57:00,67.5,36.6,29.03,ENE,73,4.6,4.6,32,0.00,BKN,BKN,0.00,WeatherDisplay:10.37,2013-05-07 19:57:00,
2013-05-07 13:02:00,67.5,36.6,29.03,SE,142,4.0,4.0,32,0.00,BKN,BKN,0.00,WeatherDisplay:10.37,2013-05-07 20:02:00,
2013-05-07 13:07:00,67.3,36.4,29.03,South,183,5.8,5.8,32,0.00,OVC,OVC,0.00,WeatherDisplay:10.37,2013-05-07 20:07:00,
2013-05-07 13:12:00,66.9,36.1,29.03,East,79,5.8,5.8,32,0.00,OVC,OVC,0.00,WeatherDisplay:10.37,2013-05-07 20:12:00,
2013-05-07 13:17:00,67.1,36.2,29.03,ENE,74,3.6,0.0,32,0.00,OVC,OVC,0.00,WeatherDisplay:10.37,2013-05-07 20:17:00,
2013-05-07 13:22:00,67.3,36.4,29.03,ENE,77,2.7,0.0,32,0.00,OVC,OVC,0.00,WeatherDisplay:10.37,2013-05-07 20:22:00,
2013-05-07 13:27:00,67.3,36.4,29.03,East,99,3.5,0.0,32,0.00,OVC,OVC,0.00,WeatherDisplay:10.37,2013-05-07 20:27:00,
2013-05-07 13:32:00,67.1,36.2,29.03,East,94,5.8,5.8,32,0.00,OVC,OVC,0.00,WeatherDisplay:10.37,2013-05-07 20:32:00,
2013-05-07 13:37:00,67.3,36.4,29.03,SE,146,4.9,4.9,32,0.00,OVC,OVC,0.00,WeatherDisplay:10.37,2013-05-07 20:37:00,
2013-05-07 13:42:00,67.5,36.6,29.03,East,97,5.8,0.0,32,0.00,OVC,OVC,0.00,WeatherDisplay:10.37,2013-05-07 20:42:00,
2013-05-07 13:47:00,67.6,36.7,29.03,ESE,112,4.5,4.5,32,0.00,OVC,OVC,0.00,WeatherDisplay:10.37,2013-05-07 20:47:00,
2013-05-07 13:52:00,67.8,36.9,29.03,SSW,213,5.8,5.8,32,0.00,OVC,OVC,0.00,WeatherDisplay:10.37,2013-05-07 20:52:00,
2013-05-07 13:57:00,68.0,37.0,29.03,SSE,156,5.8,5.8,32,0.00,OVC,OVC,0.00,WeatherDisplay:10.37,2013-05-07 20:57:00,
2013-05-07 14:02:00,68.2,37.2,29.03,South,189,4.6,0.0,32,0.00,OVC,OVC,0.00,WeatherDisplay:10.37,2013-05-07 21:02:00,
2013-05-07 14:07:00,68.5,37.5,29.03,SE,129,6.3,6.3,32,0.00,BKN,BKN,0.00,WeatherDisplay:10.37,2013-05-07 21:07:00,
2013-05-07 14:12:00,68.5,37.5,29.03,ESE,116,0.0,0.0,32,0.00,BKN,BKN,0.00,WeatherDisplay:10.37,2013-05-07 21:12:00,
2013-05-07 14:17:00,68.7,37.7,29.03,SSE,148,4.6,4.6,32,0.00,BKN,BKN,0.00,WeatherDisplay:10.37,2013-05-07 21:17:00,
2013-05-07 14:22:00,68.7,37.7,29.03,South,191,5.8,5.8,32,0.00,BKN,BKN,0.00,WeatherDisplay:10.37,2013-05-07 21:22:00,
2013-05-07 14:27:00,68.4,37.3,29.03,East,92,4.0,4.0,32,0.00,BKN,BKN,0.00,WeatherDisplay:10.37,2013-05-07 21:27:00,
2013-05-07 14:32:00,68.4,37.3,29.03,ESE,107,4.0,4.0,32,0.00,BKN,BKN,0.00,WeatherDisplay:10.37,2013-05-07 21:32:00,
2013-05-07 14:37:00,68.5,37.5,29.03,SSW,192,3.6,0.0,32,0.00,BKN,BKN,0.00,WeatherDisplay:10.37,2013-05-07 21:37:00,
2013-05-07 14:42:00,68.9,37.8,29.03,SE,141,4.6,4.6,32,0.00,BKN,BKN,0.00,WeatherDisplay:10.37,2013-05-07 21:42:00,
2013-05-07 14:47:00,69.6,38.4,29.03,ESE,107,4.9,4.9,32,0.00,BKN,BKN,0.00,WeatherDisplay:10.37,2013-05-07 21:47:00,
2013-05-07 14:52:00,70.0,38.8,29.03,SSW,192,6.3,6.3,32,0.00,BKN,BKN,0.00,WeatherDisplay:10.37,2013-05-07 21:52:00,
2013-05-07 14:57:00,69.8,38.6,29.03,ENE,64,4.9,4.9,32,0.00,BKN,BKN,0.00,WeatherDisplay:10.37,2013-05-07 21:57:00,
2013-05-07 15:02:00,69.8,38.6,29.03,ESE,104,2.3,0.0,32,0.00,BKN,BKN,0.00,WeatherDisplay:10.37,2013-05-07 22:02:00,
2013-05-07 15:07:00,69.6,38.4,29.03,West,276,4.6,4.6,32,0.00,BKN,BKN,0.00,WeatherDisplay:10.37,2013-05-07 22:07:00,
2013-05-07 15:12:00,69.8,38.6,29.03,ENE,70,4.0,4.0,32,0.00,BKN,BKN,0.00,WeatherDisplay:10.37,2013-05-07 22:12:00,
2013-05-07 15:17:00,70.5,39.2,29.03,ENE,61,6.3,6.3,32,0.00,BKN,BKN,0.00,WeatherDisplay:10.37,2013-05-07 22:17:00,
2013-05-07 15:22:00,70.7,39.4,29.03,ESE,104,5.8,0.0,32,0.00,BKN,BKN,0.00,WeatherDisplay:10.37,2013-05-07 22:22:00,
2013-05-07 15:27:00,70.7,36.9,29.03,SSE,148,5.8,5.8,29,0.00,BKN,BKN,0.00,WeatherDisplay:10.37,2013-05-07 22:27:00,
2013-05-07 15:32:00,70.5,36.7,29.03,South,183,0.0,0.0,29,0.00,BKN,BKN,0.00,WeatherDisplay:10.37,2013-05-07 22:32:00,
2013-05-07 15:37:00,70.5,36.7,29.03,South,169,0.0,0.0,29,0.00,BKN,BKN,0.00,WeatherDisplay:10.37,2013-05-07 22:37:00,
2013-05-07 15:42:00,70.9,39.5,29.03,NW,324,3.5,0.0,32,0.00,BKN,BKN,0.00,WeatherDisplay:10.37,2013-05-07 22:42:00,
2013-05-07 15:47:00,71.1,37.2,29.03,ENE,65,3.5,0.0,29,0.00,BKN,BKN,0.00,WeatherDisplay:10.37,2013-05-07 22:47:00,
2013-05-07 15:52:00,72.1,38.1,29.00,SSW,211,3.6,0.0,29,0.00,BKN,BKN,0.00,WeatherDisplay:10.37,2013-05-07 22:52:00,
2013-05-07 15:57:00,72.3,38.3,29.00,South,169,2.7,0.0,29,0.00,BKN,BKN,0.00,WeatherDisplay:10.37,2013-05-07 22:57:00,
2013-05-07 16:02:00,71.8,37.8,29.00,South,171,5.8,5.8,29,0.00,BKN,BKN,0.00,WeatherDisplay:10.37,2013-05-07 23:02:00,
2013-05-07 16:07:00,71.4,37.5,29.00,SSW,198,4.0,0.0,29,0.00,BKN,BKN,0.00,WeatherDisplay:10.37,2013-05-07 23:07:00,
2013-05-07 16:12:00,70.5,36.7,29.00,SW,226,2.7,0.0,29,0.00,BKN,BKN,0.00,WeatherDisplay:10.37,2013-05-07 23:12:00,
2013-05-07 16:17:00,70.0,36.2,29.00,WSW,250,2.7,0.0,29,0.00,BKN,BKN,0.00,WeatherDisplay:10.37,2013-05-07 23:17:00,
2013-05-07 16:22:00,70.0,36.2,29.00,SSW,208,0.0,0.0,29,0.00,BKN,BKN,0.00,WeatherDisplay:10.37,2013-05-07 23:22:00,
2013-05-07 16:27:00,69.8,36.1,29.00,South,180,4.9,4.9,29,0.00,BKN,BKN,0.00,WeatherDisplay:10.37,2013-05-07 23:27:00,
2013-05-07 16:32:00,69.6,36.8,29.00,SSE,167,4.6,4.6,30,0.00,BKN,BKN,0.00,WeatherDisplay:10.37,2013-05-07 23:32:00,
2013-05-07 16:37:00,69.3,36.5,29.00,SSE,161,2.3,0.0,30,0.00,BKN,BKN,0.00,WeatherDisplay:10.37,2013-05-07 23:37:00,
2013-05-07 16:42:00,69.6,36.8,29.00,South,185,3.5,0.0,30,0.00,BKN,BKN,0.00,WeatherDisplay:10.37,2013-05-07 23:42:00,
2013-05-07 16:47:00,70.7,36.9,29.00,South,171,5.8,5.8,29,0.00,BKN,BKN,0.00,WeatherDisplay:10.37,2013-05-07 23:47:00,
2013-05-07 16:52:00,71.4,37.5,29.00,South,178,4.9,0.0,29,0.00,BKN,BKN,0.00,WeatherDisplay:10.37,2013-05-07 23:52:00,
2013-05-07 16:57:00,71.2,37.3,29.00,SSE,158,4.0,0.0,29,0.00,BKN,BKN,0.00,WeatherDisplay:10.37,2013-05-07 23:57:00,
2013-05-07 17:02:00,70.5,36.7,29.00,SSE,166,4.6,4.6,29,0.00,BKN,BKN,0.00,WeatherDisplay:10.37,2013-05-08 00:02:00,
2013-05-07 17:07:00,70.2,36.4,29.00,SSE,167,4.0,4.0,29,0.00,BKN,BKN,0.00,WeatherDisplay:10.37,2013-05-08 00:07:00,
2013-05-07 17:12:00,69.4,36.6,29.00,South,178,3.5,3.5,30,0.00,BKN,BKN,0.00,WeatherDisplay:10.37,2013-05-08 00:12:00,
2013-05-07 17:17:00,68.9,36.2,29.00,SSW,206,3.6,3.6,30,0.00,BKN,BKN,0.00,WeatherDisplay:10.37,2013-05-08 00:17:00,
2013-05-07 17:22:00,68.7,36.0,29.00,South,189,3.5,0.0,30,0.00,BKN,BKN,0.00,WeatherDisplay:10.37,2013-05-08 00:22:00,
2013-05-07 17:27:00,68.5,35.9,29.00,SSE,157,3.5,3.5,30,0.00,BKN,BKN,0.00,WeatherDisplay:10.37,2013-05-08 00:27:00,
2013-05-07 17:32:00,68.5,35.9,29.00,SSW,200,4.0,4.0,30,0.00,BKN,BKN,0.00,WeatherDisplay:10.37,2013-05-08 00:32:00,
2013-05-07 17:37:00,68.4,35.7,29.00,South,181,4.0,4.0,30,0.00,BKN,BKN,0.00,WeatherDisplay:10.37,2013-05-08 00:37:00,
2013-05-07 17:42:00,68.2,35.5,29.00,SSE,148,4.0,4.0,30,0.00,BKN,BKN,0.00,WeatherDisplay:10.37,2013-05-08 00:42:00,
2013-05-07 17:47:00,68.2,35.5,29.00,SSE,148,3.6,0.0,30,0.00,BKN,BKN,0.00,WeatherDisplay:10.37,2013-05-08 00:47:00,
2013-05-07 17:52:00,68.2,35.5,29.00,ESE,123,0.0,0.0,30,0.00,BKN,BKN,0.00,WeatherDisplay:10.37,2013-05-08 00:52:00,
2013-05-07 17:57:00,68.2,35.5,29.00,South,177,4.6,4.6,30,0.00,BKN,BKN,0.00,WeatherDisplay:10.37,2013-05-08 00:57:00,
2013-05-07 18:02:00,68.2,35.5,29.00,ESE,119,2.7,0.0,30,0.00,BKN,BKN,0.00,WeatherDisplay:10.37,2013-05-08 01:02:00,
2013-05-07 18:07:00,68.4,35.7,29.00,SE,137,2.3,0.0,30,0.00,BKN,BKN,0.00,WeatherDisplay:10.37,2013-05-08 01:07:00,
2013-05-07 18:12:00,68.4,35.7,29.00,SSE,156,0.0,0.0,30,0.00,BKN,BKN,0.00,WeatherDisplay:10.37,2013-05-08 01:12:00,
2013-05-07 18:17:00,68.4,35.7,29.00,South,170,3.6,0.0,30,0.00,BKN,BKN,0.00,WeatherDisplay:10.37,2013-05-08 01:17:00,
2013-05-07 18:22:00,68.4,35.7,29.00,SSW,197,0.0,0.0,30,0.00,BKN,BKN,0.00,WeatherDisplay:10.37,2013-05-08 01:22:00,
2013-05-07 18:27:00,68.4,35.7,29.00,South,186,0.0,0.0,30,0.00,BKN,BKN,0.00,WeatherDisplay:10.37,2013-05-08 01:27:00,
2013-05-07 18:32:00,68.4,35.7,29.00,SSW,205,2.7,0.0,30,0.00,BKN,BKN,0.00,WeatherDisplay:10.37,2013-05-08 01:32:00,
2013-05-07 18:37:00,68.2,35.5,29.00,SSW,201,0.0,0.0,30,0.00,BKN,BKN,0.00,WeatherDisplay:10.37,2013-05-08 01:37:00,
2013-05-07 18:42:00,68.0,35.4,29.00,SSW,213,3.6,0.0,30,0.00,BKN,BKN,0.00,WeatherDisplay:10.37,2013-05-08 01:42:00,
2013-05-07 18:47:00,67.8,35.2,29.00,South,191,2.3,0.0,30,0.00,BKN,BKN,0.00,WeatherDisplay:10.37,2013-05-08 01:47:00,
2013-05-07 18:52:00,67.8,35.2,29.00,SSW,192,0.0,0.0,30,0.00,BKN,BKN,0.00,WeatherDisplay:10.37,2013-05-08 01:52:00,
2013-05-07 18:57:00,67.6,35.1,29.00,SSW,195,0.0,0.0,30,0.00,BKN,BKN,0.00,WeatherDisplay:10.37,2013-05-08 01:57:00,
2013-05-07 19:02:00,67.6,35.1,29.00,SSE,161,2.7,0.0,30,0.00,BKN,BKN,0.00,WeatherDisplay:10.37,2013-05-08 02:02:00,
2013-05-07 19:07:00,67.5,34.9,29.00,SSE,168,0.0,0.0,30,0.00,BKN,BKN,0.00,WeatherDisplay:10.37,2013-05-08 02:07:00,
2013-05-07 19:12:00,67.5,34.9,29.00,SE,141,0.0,0.0,30,0.00,BKN,BKN,0.00,WeatherDisplay:10.37,2013-05-08 02:12:00,
2013-05-07 19:17:00,67.5,34.9,29.00,SSE,155,0.0,0.0,30,0.00,BKN,BKN,0.00,WeatherDisplay:10.37,2013-05-08 02:17:00,
2013-05-07 19:22:00,67.5,34.9,29.00,SE,143,0.0,0.0,30,0.00,BKN,BKN,0.00,WeatherDisplay:10.37,2013-05-08 02:22:00,
2013-05-07 19:27:00,67.3,34.8,29.00,SE,124,0.0,0.0,30,0.00,BKN,BKN,0.00,WeatherDisplay:10.37,2013-05-08 02:27:00,
2013-05-07 19:32:00,67.3,34.8,29.00,ESE,121,0.0,0.0,30,0.00,BKN,BKN,0.00,WeatherDisplay:10.37,2013-05-08 02:32:00,
2013-05-07 19:37:00,67.1,34.6,29.00,SSE,151,3.5,0.0,30,0.00,BKN,BKN,0.00,WeatherDisplay:10.37,2013-05-08 02:37:00,
2013-05-07 19:42:00,66.9,34.5,29.00,SE,129,2.3,0.0,30,0.00,BKN,BKN,0.00,WeatherDisplay:10.37,2013-05-08 02:42:00,
2013-05-07 19:47:00,66.7,34.3,29.00,SE,135,3.6,0.0,30,0.00,BKN,BKN,0.00,WeatherDisplay:10.37,2013-05-08 02:47:00,
2013-05-07 19:52:00,66.7,34.3,29.00,SE,130,0.0,0.0,30,0.00,BKN,BKN,0.00,WeatherDisplay:10.37,2013-05-08 02:52:00,
2013-05-07 19:57:00,66.6,34.1,29.00,ESE,121,2.7,0.0,30,0.00,BKN,BKN,0.00,WeatherDisplay:10.37,2013-05-08 02:57:00,
2013-05-07 20:02:00,66.6,34.1,29.00,East,88,0.0,0.0,30,0.00,BKN,BKN,0.00,WeatherDisplay:10.37,2013-05-08 03:02:00,
2013-05-07 20:07:00,66.4,34.0,29.00,East,85,3.6,3.6,30,0.00,BKN,BKN,0.00,WeatherDisplay:10.37,2013-05-08 03:07:00,
2013-05-07 20:12:00,66.2,35.4,29.00,ESE,102,3.5,0.0,32,0.00,BKN,BKN,0.00,WeatherDisplay:10.37,2013-05-08 03:12:00,
2013-05-07 20:17:00,66.2,35.4,29.00,ESE,116,0.0,0.0,32,0.00,BKN,BKN,0.00,WeatherDisplay:10.37,2013-05-08 03:17:00,
2013-05-07 20:22:00,66.2,35.4,29.00,ESE,107,3.6,0.0,32,0.00,BKN,BKN,0.00,WeatherDisplay:10.37,2013-05-08 03:22:00,
2013-05-07 20:27:00,66.2,35.4,29.00,ENE,76,3.5,0.0,32,0.00,BKN,BKN,0.00,WeatherDisplay:10.37,2013-05-08 03:27:00,
2013-05-07 20:32:00,66.0,36.1,29.00,ENE,61,0.0,0.0,33,0.00,BKN,BKN,0.00,WeatherDisplay:10.37,2013-05-08 03:32:00,
2013-05-07 20:37:00,65.7,35.8,29.00,ESE,116,4.9,0.0,33,0.00,BKN,BKN,0.00,WeatherDisplay:10.37,2013-05-08 03:37:00,
2013-05-07 20:42:00,65.7,35.8,29.00,NE,51,0.0,0.0,33,0.00,BKN,BKN,0.00,WeatherDisplay:10.37,2013-05-08 03:42:00,
2013-05-07 20:47:00,65.5,35.6,29.00,East,91,0.0,0.0,33,0.00,BKN,BKN,0.00,WeatherDisplay:10.37,2013-05-08 03:47:00,
2013-05-07 20:52:00,65.5,35.6,29.03,SE,127,0.0,0.0,33,0.00,BKN,BKN,0.00,WeatherDisplay:10.37,2013-05-08 03:52:00,
2013-05-07 20:57:00,65.3,35.4,29.03,East,87,0.0,0.0,33,0.00,BKN,BKN,0.00,WeatherDisplay:10.37,2013-05-08 03:57:00,
2013-05-07 21:01:00,65.1,35.3,29.03,ESE,123,2.7,0.0,33,0.00,BKN,BKN,0.00,WeatherDisplay:10.37,2013-05-08 04:01:00,
2013-05-07 21:02:00,65.1,35.3,29.03,ESE,123,2.7,0.0,33,0.00,BKN,BKN,0.00,WeatherDisplay:10.37,2013-05-08 04:02:00,
2013-05-07 21:03:00,65.1,35.3,29.03,East,84,2.7,0.0,33,0.00,BKN,BKN,0.00,WeatherDisplay:10.37,2013-05-08 04:03:00,
2013-05-07 21:04:00,65.1,35.3,29.03,ENE,78,0.0,3.0,33,0.00,BKN,BKN,0.00,WeatherDisplay:10.37,2013-05-08 04:04:00,
2013-05-07 21:09:00,64.9,35.1,29.00,East,96,2.7,0.0,33,0.00,BKN,BKN,0.00,WeatherDisplay:10.37,2013-05-08 04:09:00,
2013-05-07 21:14:00,64.8,35.0,29.00,SSE,153,3.6,0.0,33,0.00,BKN,BKN,0.00,WeatherDisplay:10.37,2013-05-08 04:14:00,
2013-05-07 21:19:00,64.6,34.8,29.00,NNE,28,2.7,0.0,33,0.00,BKN,BKN,0.00,WeatherDisplay:10.37,2013-05-08 04:19:00,
2013-05-07 21:24:00,64.4,34.6,29.03,NNE,24,4.0,0.0,33,0.00,BKN,BKN,0.00,WeatherDisplay:10.37,2013-05-08 04:24:00,
2013-05-07 21:29:00,64.2,34.5,29.03,NE,35,5.8,5.8,33,0.00,BKN,BKN,0.00,WeatherDisplay:10.37,2013-05-08 04:29:00,
2013-05-07 21:34:00,64.0,34.3,29.03,North,5,3.5,0.0,33,0.00,BKN,BKN,0.00,WeatherDisplay:10.37,2013-05-08 04:34:00,
2013-05-07 21:39:00,63.9,34.2,29.03,NE,39,3.1,0.0,33,0.00,BKN,BKN,0.00,WeatherDisplay:10.37,2013-05-08 04:39:00,
2013-05-07 21:44:00,63.7,34.0,29.03,North,9,2.3,0.0,33,0.00,BKN,BKN,0.00,WeatherDisplay:10.37,2013-05-08 04:44:00,
2013-05-07 21:49:00,63.5,33.9,29.03,NNE,20,2.7,0.0,33,0.00,BKN,BKN,0.00,WeatherDisplay:10.37,2013-05-08 04:49:00,
2013-05-07 21:54:00,63.3,33.7,29.03,North,1,3.5,3.5,33,0.00,BKN,BKN,0.00,WeatherDisplay:10.37,2013-05-08 04:54:00,
2013-05-07 21:59:00,63.3,33.7,29.03,NE,56,2.3,0.0,33,0.00,BKN,BKN,0.00,WeatherDisplay:10.37,2013-05-08 04:59:00,
2013-05-07 22:04:00,63.1,33.5,29.03,NE,55,0.0,0.0,33,0.00,BKN,BKN,0.00,WeatherDisplay:10.37,2013-05-08 05:04:00,
2013-05-07 22:09:00,63.1,33.5,29.03,SSE,154,2.2,0.0,33,0.00,BKN,BKN,0.00,WeatherDisplay:10.37,2013-05-08 05:09:00,
2013-05-07 22:14:00,63.1,33.5,29.03,SSE,158,0.0,0.0,33,0.00,BKN,BKN,0.00,WeatherDisplay:10.37,2013-05-08 05:14:00,
2013-05-07 22:19:00,63.1,33.5,29.03,SSE,153,3.6,0.0,33,0.00,BKN,BKN,0.00,WeatherDisplay:10.37,2013-05-08 05:19:00,
2013-05-07 22:24:00,63.1,33.5,29.03,SSE,157,3.1,0.0,33,0.00,BKN,BKN,0.00,WeatherDisplay:10.37,2013-05-08 05:24:00,
2013-05-07 22:29:00,63.1,33.5,29.03,SSE,159,2.3,0.0,33,0.00,BKN,BKN,0.00,WeatherDisplay:10.37,2013-05-08 05:29:00,
2013-05-07 22:34:00,63.1,33.5,29.03,South,184,3.5,3.5,33,0.00,BKN,BKN,0.00,WeatherDisplay:10.37,2013-05-08 05:34:00,
2013-05-07 22:39:00,63.1,33.5,29.03,SSE,148,0.0,0.0,33,0.00,BKN,BKN,0.00,WeatherDisplay:10.37,2013-05-08 05:39:00,
2013-05-07 22:44:00,63.1,33.5,29.03,SE,128,3.5,0.0,33,0.00,BKN,BKN,0.00,WeatherDisplay:10.37,2013-05-08 05:44:00,
2013-05-07 22:49:00,63.1,35.7,29.03,SE,145,3.6,0.0,36,0.00,BKN,BKN,0.00,WeatherDisplay:10.37,2013-05-08 05:49:00,
2013-05-07 22:54:00,63.1,35.7,29.03,SSE,162,3.5,3.5,36,0.00,BKN,BKN,0.00,WeatherDisplay:10.37,2013-05-08 05:54:00,
2013-05-07 22:59:00,63.0,35.6,29.03,SE,144,3.5,0.0,36,0.00,BKN,BKN,0.00,WeatherDisplay:10.37,2013-05-08 05:59:00,
2013-05-07 23:04:00,63.0,35.6,29.03,South,178,3.5,0.0,36,0.00,BKN,BKN,0.00,WeatherDisplay:10.37,2013-05-08 06:04:00,
2013-05-07 23:09:00,63.0,35.6,29.03,SSE,166,3.6,3.6,36,0.00,OVC,OVC,0.00,WeatherDisplay:10.37,2013-05-08 06:09:00,
2013-05-07 23:14:00,63.0,35.6,29.03,South,170,0.0,0.0,36,0.00,OVC,OVC,0.00,WeatherDisplay:10.37,2013-05-08 06:14:00,
2013-05-07 23:19:00,62.8,35.4,29.03,SSE,166,3.5,0.0,36,0.00,OVC,OVC,0.00,WeatherDisplay:10.37,2013-05-08 06:19:00,
2013-05-07 23:24:00,62.8,35.4,29.03,SSE,151,0.0,0.0,36,0.00,OVC,OVC,0.00,WeatherDisplay:10.37,2013-05-08 06:24:00,
2013-05-07 23:29:00,62.6,35.3,29.03,SE,125,0.0,0.0,36,0.00,OVC,OVC,0.00,WeatherDisplay:10.37,2013-05-08 06:29:00,
2013-05-07 23:34:00,62.6,35.3,29.03,ESE,108,0.0,0.0,36,0.00,OVC,OVC,0.00,WeatherDisplay:10.37,2013-05-08 06:34:00,
2013-05-07 23:39:00,62.6,33.1,29.03,SSE,150,0.0,0.0,33,0.00,OVC,OVC,0.00,WeatherDisplay:10.37,2013-05-08 06:39:00,
2013-05-07 23:44:00,62.6,33.1,29.03,SE,131,0.0,0.0,33,0.00,OVC,OVC,0.00,WeatherDisplay:10.37,2013-05-08 06:44:00,
2013-05-07 23:49:00,62.6,33.1,29.03,SE,131,0.0,0.0,33,0.00,OVC,OVC,0.00,WeatherDisplay:10.37,2013-05-08 06:49:00,
2013-05-07 23:54:00,62.6,35.3,29.03,SE,139,0.0,0.0,36,0.00,OVC,OVC,0.00,WeatherDisplay:10.37,2013-05-08 06:54:00,
2013-05-07 23:59:00,62.6,35.3,29.03,South,184,3.5,0.0,36,0.00,OVC,OVC,0.00,WeatherDisplay:10.37,2013-05-08 06:59:00,